Elefsis, Greece

6:17 AM EEST on September 20, 2017 (GMT +0300)
Elefsis Air Base

Weather History for LGEL - October, 2012

Change the Weather History Date:

Thursday, October 25, 2012

  Actual Average Record
Temperature  
Mean Temperature 65 °F -  
Max Temperature 73 °F 64 °F 86 °F (2003)
Min Temperature 57 °F 50 °F 44 °F (2000)
Growing Degree Days 15 (Base 50)    
Moisture  
Dew Point 51 °F    
Average Humidity 61    
Maximum Humidity 77    
Minimum Humidity 44    
Precipitation  
Precipitation 0.00 in - - ()
Sea Level Pressure  
Sea Level Pressure 29.92 in    
Wind  
Wind Speed 7 mph ()    
Max Wind Speed 12 mph    
Max Gust Speed -    
Visibility 6.2 miles    
Events      
Averages and records for this station are not official NWS values.
T = Trace of Precipitation, MM = Missing Value Source: Averaged Metar Reports

Daily Weather History Graph

Daily Weather History Graph

Search for Another Location

Airport or City:

Trip Planner

Search our weather history database for the weather conditions in past years. The results will help you decide how hot, cold, wet, or windy it might be!

Date:

Astronomy

Oct. 25, 2012 Rise Set
Actual Time 7:44 AM EEST 6:34 PM EEST
Civil Twilight 7:17 AM EEST 7:01 PM EEST
Nautical Twilight 6:46 AM EEST 7:32 PM EEST
Astronomical Twilight 6:16 AM EEST 8:02 PM EEST
Moon 4:08 PM EEST (10/25) 3:25 AM EEST (10/25)
Length of Visible Light 11h 43m
Length of Day
10h 50m
Waxing Gibbous, 82% of the Moon is Illuminated
Oct 25
Waxing Gibbous
Oct 29
Full
Nov 7
Last Quarter
Nov 14
New
Nov 20
First Quarter

Hourly Weather History & Observations

Time (EEST) Temp. Dew Point Humidity Pressure Visibility Wind Dir Wind Speed Gust Speed Precip Events Conditions
12:50 AM 64.4 °F 53.6 °F 68% 29.98 in 6.2 mi NW 9.2 mph - N/A   Scattered Clouds
1:50 AM 64.4 °F 53.6 °F 68% 29.98 in 6.2 mi NW 9.2 mph - N/A   Scattered Clouds
2:50 AM 62.6 °F 53.6 °F 72% 29.98 in 6.2 mi WNW 6.9 mph - N/A   Partly Cloudy
3:50 AM 62.6 °F 53.6 °F 72% 29.95 in 6.2 mi NW 9.2 mph - N/A   Partly Cloudy
4:50 AM 62.6 °F 53.6 °F 72% 29.95 in 6.2 mi NW 5.8 mph - N/A   Scattered Clouds
5:50 AM 62.6 °F 51.8 °F 68% 29.95 in 6.2 mi NW 5.8 mph - N/A   Scattered Clouds
6:20 AM 62.6 °F 51.8 °F 68% 29.95 in 6.2 mi NW 8.1 mph - N/A   Scattered Clouds
6:50 AM 60.8 °F 51.8 °F 72% 29.95 in 6.2 mi WNW 5.8 mph - N/A   Scattered Clouds
7:20 AM 62.6 °F 51.8 °F 68% 29.95 in 6.2 mi NW 8.1 mph - N/A   Partly Cloudy
7:50 AM 62.6 °F 51.8 °F 68% 29.95 in 6.2 mi NW 8.1 mph - N/A   Partly Cloudy
8:20 AM 62.6 °F 51.8 °F 68% 29.95 in 6.2 mi NW 9.2 mph - N/A   Partly Cloudy
8:50 AM 64.4 °F 51.8 °F 64% 29.95 in 6.2 mi NNW 9.2 mph - N/A   Partly Cloudy
9:50 AM 66.2 °F 51.8 °F 60% 29.95 in 6.2 mi NNW 6.9 mph - N/A   Partly Cloudy
10:20 AM 68.0 °F 53.6 °F 60% 29.95 in 6.2 mi NNW 6.9 mph - N/A   Partly Cloudy
10:50 AM 68.0 °F 51.8 °F 56% 29.95 in 6.2 mi NNW 11.5 mph - N/A   Partly Cloudy
11:20 AM 68.0 °F 51.8 °F 56% 29.95 in 6.2 mi NNW 9.2 mph - N/A   Partly Cloudy
11:50 AM 69.8 °F 53.6 °F 56% 29.95 in 6.2 mi NNW 11.5 mph - N/A   Partly Cloudy
12:20 PM 69.8 °F 51.8 °F 53% 29.95 in 6.2 mi North 11.5 mph - N/A   Partly Cloudy
12:50 PM 71.6 °F 51.8 °F 50% 29.92 in 6.2 mi NNW 8.1 mph - N/A   Partly Cloudy
1:50 PM 73.4 °F 50.0 °F 44% 29.89 in 6.2 mi NNW 11.5 mph - N/A   Partly Cloudy
2:20 PM 73.4 °F 50.0 °F 44% 29.89 in 6.2 mi NNW 11.5 mph - N/A   Partly Cloudy
2:50 PM 73.4 °F 50.0 °F 44% 29.89 in 6.2 mi North 9.2 mph - N/A   Partly Cloudy
3:20 PM 71.6 °F 50.0 °F 46% 29.89 in 6.2 mi NNW 9.2 mph - N/A   Partly Cloudy
3:50 PM 73.4 °F 50.0 °F 44% 29.89 in 6.2 mi NNW 9.2 mph - N/A   Partly Cloudy
4:20 PM 73.4 °F 50.0 °F 44% 29.89 in 6.2 mi North 11.5 mph - N/A   Partly Cloudy
4:50 PM 73.4 °F 50.0 °F 44% 29.89 in 6.2 mi NNW 6.9 mph - N/A   Partly Cloudy
5:50 PM 71.6 °F 50.0 °F 46% 29.86 in 6.2 mi North 6.9 mph - N/A   Partly Cloudy
6:20 PM 71.6 °F 50.0 °F 46% 29.86 in 6.2 mi North 6.9 mph - N/A   Partly Cloudy
6:50 PM 68.0 °F 50.0 °F 52% 29.86 in 6.2 mi Calm Calm - N/A   Partly Cloudy
7:20 PM 66.2 °F 51.8 °F 60% 29.86 in 6.2 mi North 6.9 mph - N/A   Partly Cloudy
7:50 PM 64.4 °F 51.8 °F 64% 29.89 in 6.2 mi Calm Calm - N/A   Partly Cloudy
8:20 PM 64.4 °F 50.0 °F 59% 29.89 in 6.2 mi Calm Calm - N/A   Partly Cloudy
8:50 PM 62.6 °F 51.8 °F 68% 29.89 in - Calm Calm - N/A   Clear
9:20 PM 60.8 °F 51.8 °F 72% 29.89 in - North 4.6 mph - N/A   Clear
9:50 PM 59.0 °F 51.8 °F 77% 29.89 in - Calm Calm - N/A   Clear
10:20 PM 60.8 °F 50.0 °F 68% 29.89 in - Calm Calm - N/A   Clear
10:50 PM 59.0 °F 50.0 °F 72% 29.89 in - Calm Calm - N/A   Clear
11:20 PM 57.2 °F 50.0 °F 77% 29.89 in - Calm Calm - N/A   Clear
11:50 PM 57.2 °F 50.0 °F 77% 29.89 in - NNW 4.6 mph - N/A   Clear